Meteo Giornale » Osservazioni meteo Gran Bretagna » Biggin Hill

ore: 22:20 - Osservazioni Meteo Biggin Hill
Lat. 51° 19' N Lon. 0° 2' E Alt. 183 metri s.l.m.

sereno Europe/London

13 °C

Sereno

Temp. 24 Ore

12 °C

20 °C

Ovest/Sud-Ovest

9.3 Km/h

Dew point 11 °C

Umidità 87 %

Visibilità  10 Km

Il sole sorge alle ore 06:44

Il sole tramonta alle ore 19:00

Data e Ora Cielo e Fenomeni T °C DP °C Um. % Pres. hPa Vis. km Vento km/h
Ieri h: 22:20 sereno Sereno 13 11 87 1025 10 O/SO 9.3
Ieri h: 21:50 sereno Sereno 13 11 87 1025 10 O/SO 9.3
Ieri h: 21:20 sereno Sereno 13 11 87 1025 10 O/SO 9.3
Ieri h: 20:50 sereno Sereno 14 11 82 1025 10 O/SO 9.3
Ieri h: 20:20 sereno Sereno 14 12 87 1025 10 SO 11.1
Ieri h: 19:50 sereno Sereno 15 12 82 1025 10 S/SO 11.1
Ieri h: 19:20 sereno Sereno 15 12 82 1025 10 S/SO 9.3
Ieri h: 18:50 sereno Sereno 16 12 77 1025 10 SO 9.3
Ieri h: 18:20 sereno Sereno 17 12 72 1025 10 SO 11.1
Ieri h: 17:50 sereno Sereno 18 12 67 1026 10 O/SO 14.8
Ieri h: 16:50 sereno Sereno 19 12 63 1026 10 SO 14.8
Ieri h: 14:50 nuvoloso Nuvoloso 20 12 59 1027 10 SO 18.5
Ieri h: 14:20 nuvoloso Nuvoloso 20 11 56 1027 10 O/SO 13
Ieri h: 13:50 poco_nuvoloso Poco Nuvoloso 20 12 59 1028 10 SO 11.1
Ieri h: 13:20 poco_nuvoloso Poco Nuvoloso 19 12 63 1028 10 O/SO 11.1
Ieri h: 12:50 poco_nuvoloso Poco Nuvoloso 20 12 59 1028 10 SO 13
Ieri h: 12:20 poco_nuvoloso Poco Nuvoloso 19 12 63 1029 10 O 11.1
Ieri h: 11:50 poco_nuvoloso Poco Nuvoloso 20 12 59 1029 10 O/SO 9.3
Ieri h: 11:20 poco_nuvoloso Poco Nuvoloso 19 12 63 1029 10 O 7.4
Ieri h: 10:50 poco_nuvoloso Poco Nuvoloso 18 12 67 1029 10 O/SO 9.3
Ieri h: 10:20 sereno Sereno 17 12 72 1030 10 O 9.3
Ieri h: 09:50 sereno Sereno 17 12 72 1030 10 O/SO 7.4
Ieri h: 09:20 sereno Sereno 16 12 77 1030 10 O 7.4
Ieri h: 08:50 sereno Sereno 15 12 82 1030 10 N 5.5
Ieri h: 08:20 sereno Sereno 15 12 82 1029 10 O/SO 7.4
Ieri h: 07:50 sereno Sereno 14 11 82 1029 10 O/SO 7.4
Ieri h: 07:20 sereno Sereno 13 11 87 1029 10 SO 7.4
Ieri h: 06:50 sereno Sereno 13 11 87 1029 10 SO 9.3
Ieri h: 06:20 sereno Sereno 12 10 87 1029 10 S/SO 11.1